User: anonymous   Login
Location: Leeds
(37.2390°N, 113.3580°W)
Time: 21:33:58
(UTC-07:00)
Language:

SL-08 RB Rocket - Orbit

View from above orbital plane
View from above orbital plane
View from above satellite
View from above satellite

Ground track
Ground track

The orbit data is extracted from the following two-line orbital elements,

1 26387U 00033D   14325.82663419  .00000794  00000-0  14782-3 0  6673
2 26387 098.0890 031.7085 0027908 075.9453 059.9017 14.67525081770201
Epoch (UTC): 21 November 2014 19:50:21
Eccentricity: 0.0027908
inclination: 98.0890°
perigee height: 649 km
apogee height: 688 km
right ascension of ascending node: 31.7085°
argument of perigee: 75.9453°
revolutions per day: 14.67525081
mean anomaly at epoch: 59.9017°
orbit number at epoch: 77020

The dashed part of the orbit path shows where the satellite is in the earth's shadow,  

DLR